User: anonymous   Login
Location: Oshawa
(43.9000°N, 78.8670°W)
Time: 17:23:46
(UTC-04:00)
Language:

Altair - Orbit

View from above orbital plane
View from above orbital plane
View from above satellite
View from above satellite

Ground track
Ground track

The orbit data is extracted from the following two-line orbital elements,

1    50U 60009B   17141.72358326 -.00000116 +00000-0 -29599-3 0  9997
2    50 047.2333 005.8189 0113381 219.6706 139.5747 12.20099668533143
Epoch (UTC): 21 May 2017 17:21:57
Eccentricity: 0.0113381
inclination: 47.2333°
perigee height: 1502 km
apogee height: 1682 km
right ascension of ascending node: 5.8189°
argument of perigee: 219.6706°
revolutions per day: 12.20099668
mean anomaly at epoch: 139.5747°
orbit number at epoch: 53314

The dashed part of the orbit path shows where the satellite is in the earth's shadow,  

DLR